Location: Arboyeti
(42.1122°N, 44.6017°E)
Time: 21:24:50
(UTC+00:00)

USA 215 - Pass Details

Date: 19 April 2021
Orbit: 1101 x 1107 km, 123.0° (Epoch: 15 May)

Event Time Altitude Azimuth Distance (km) Brightness Sun altitude
Exits shadow 18:13:38 44° 107° (ESE) 1,475 3.5 -24.2°
Maximum altitude 18:15:48 72° 37° (NE) 1,156 3.3 -24.5°
Drops below altitude 10° 18:22:19 10° 315° (NW) 2,963 6.6 -25.3°
Sets 18:24:48 0° 313° (NW) 3,923 7.5 -25.6°
